Location: Atherton
(17.2661°S, 145.4859°E)
Time: 23:20:04
(UTC+10:00)

Transit 2A - Pass Details

Date: 23 June 2025
Orbit: 598 x 948 km, 66.7° (Epoch: 19 July)

Event Time Altitude Azimuth Distance (km) Brightness Sun altitude
Rises 10:49:43 0° 312° (NW) 3,401 9.5 43.7°
Reaches altitude 10° 10:52:29 10° 300° (WNW) 2,522 8.8 44.0°
Maximum altitude 10:57:25 27° 243° (WSW) 1,673 7.7 44.6°
Drops below altitude 10° 11:02:37 10° 187° (S) 2,665 8.5 45.1°
Sets 11:05:38 0° 175° (S) 3,629 9.1 45.4°
